TimeCST,TemperatureF,Dew PointF,Humidity,Sea Level PressureIn,VisibilityMPH,Wind Direction,Wind SpeedMPH,Gust SpeedMPH,PrecipitationIn,Events,Conditions,WindDirDegrees,DateUTC
12:00 AM,84,78,76,30.01,12,East,11.5,,,,Partly Cloudy,80,2013-08-06 06:00:00
3:00 AM,83,78,82,29.96,12,East,5.8,,,,Mostly Cloudy,90,2013-08-06 09:00:00
5:00 AM,82.4,78.8,89,29.95,6.2,Calm,Calm,-,N/A,,Scattered Clouds,0,2013-08-06 11:00:00
6:00 AM,80,77,89,29.96,12,Calm,Calm,,,,Scattered Clouds,,2013-08-06 12:00:00
6:00 AM,80.6,77.0,89,29.95,6.2,Calm,Calm,-,N/A,,Mostly Cloudy,0,2013-08-06 12:00:00
7:00 AM,82.4,78.8,89,29.98,6.2,Calm,Calm,-,N/A,,Scattered Clouds,0,2013-08-06 13:00:00
8:00 AM,86.0,77.0,74,29.98,6.2,East,11.5,-,N/A,,Scattered Clouds,100,2013-08-06 14:00:00
9:00 AM,85,77,71,29.99,12,ESE,5.8,,,,Partly Cloudy,110,2013-08-06 15:00:00
9:00 AM,86.0,77.0,74,29.98,6.2,ESE,5.8,-,N/A,,Scattered Clouds,110,2013-08-06 15:00:00
10:00 AM,86.0,78.8,79,29.99,6.2,East,3.5,-,N/A,,Mostly Cloudy,100,2013-08-06 16:00:00
11:00 AM,87.8,78.8,75,29.98,6.2,East,4.6,-,N/A,,Mostly Cloudy,100,2013-08-06 17:00:00
12:00 PM,88,78,65,29.98,12,East,5.8,,,,Partly Cloudy,90,2013-08-06 18:00:00
12:00 PM,87.8,77.0,70,29.97,6.2,East,5.8,-,N/A,,Scattered Clouds,90,2013-08-06 18:00:00
1:00 PM,89.6,78.8,70,29.95,6.2,ENE,9.2,-,N/A,,Scattered Clouds,70,2013-08-06 19:00:00
2:00 PM,89.6,77.0,66,29.95,6.2,East,8.1,-,N/A,,Partly Cloudy,80,2013-08-06 20:00:00
3:00 PM,89,78,63,29.94,11,East,8.1,,,,Scattered Clouds,80,2013-08-06 21:00:00
3:00 PM,89.6,78.8,70,29.94,6.2,East,8.1,-,N/A,,Partly Cloudy,80,2013-08-06 21:00:00
4:00 PM,87.8,78.8,75,29.93,6.2,East,9.2,-,N/A,,Partly Cloudy,80,2013-08-06 22:00:00
5:00 PM,87.8,78.8,75,29.93,6.2,ENE,9.2,-,N/A,,Scattered Clouds,70,2013-08-06 23:00:00
6:00 PM,86,79,74,29.95,12,East,6.9,,,,Partly Cloudy,80,2013-08-07 00:00:00
6:00 PM,86.0,78.8,79,29.94,6.2,East,6.9,-,N/A,,Scattered Clouds,80,2013-08-07 00:00:00
7:00 PM,84.2,78.8,84,29.95,6.2,East,5.8,-,N/A,,Scattered Clouds,90,2013-08-07 01:00:00
9:00 PM,82,78,85,29.99,12,ESE,2.3,,,,Scattered Clouds,110,2013-08-07 03:00:00